Regional Weather Roundup
Issued by NWS Newport/Morehead, NC

Current Version | Previous Version | Text Only | Print | Product List | Glossary On
Versions: 1 2 3 4 5 6 7 8 9 10 11 12 13 14 15 16 17 18 19 20 21 22 23 24 25 26 27 28 29 30 31 32 33 34 35 36 37 38 39 40 41 42 43 44 45 46 47 48 49 50
000 ASUS42 KMHX 011925 RWRMHX WEATHER ROUNDUP FOR EASTERN NORTH CAROLINA NATIONAL WEATHER SERVICE NEWPORT/MOREHEAD CITY NC 300 PM EDT SAT AUG 01 2015 NOTE: "FAIR" INDICATES FEW OR NO CLOUDS BELOW 12,000 FEET WITH NO SIGNIFICANT WEATHER AND/OR OBSTRUCTIONS TO VISIBILITY NCZ015>017-031-032-045>047-102-103-012000- NORTH COAST CITY SKY/WX TMP DP RH WIND PRES REMARKS EDENTON N/A 89 69 50 SE7 29.88F ELIZABETH CITY MOSUNNY 88 71 57 S9G20 29.88F KITTY HAWK PTCLDY 89 72 56 S7 29.89S MANTEO PTSUNNY 83 74 73 S8 29.90F $$ NCZ045>047-081-094-103-104-012000- CENTRAL COAST CITY SKY/WX TMP DP RH WIND PRES REMARKS FRISCO PTSUNNY 87 75 67 S8 29.91F SWANQUARTER N/A 86 N/A N/A SE7 29.85F $$ NCZ095-097-098-100-101-012000- SOUTHERN COAST CITY SKY/WX TMP DP RH WIND PRES REMARKS BEAUFORT PTSUNNY 82 74 76 W5 29.90F CEDAR ISLAND N/A 77 N/A N/A S8G14 29.94S JACKSONVILLE PTSUNNY 90 71 53 E7 29.88F PINEY ISLAND MOCLDY N/A N/A N/A VRB5 29.89S WILMINGTON MOSUNNY 91 69 48 W6 29.90F $$ NCZ011>013-027>030-043-044-078>080-089-090>093-098-012000- COASTAL PLAIN CITY SKY/WX TMP DP RH WIND PRES REMARKS AHOSKIE MOSUNNY 90 59 34 CALM 29.87F CLINTON SUNNY 92 64 38 CALM 29.90F ELIZABETHTOWN MOSUNNY 94 60 31 W6 29.89F GOLDSBORO SUNNY 93 65 39 NE6 29.87F GREENVILLE MOSUNNY 91 61 35 W3 29.90F HAVELOCK LGT RAIN 77 72 84 S15G23 29.90F KENANSVILLE SUNNY 91 54 28 NW5 29.90F KINSTON SUNNY 91 59 33 NW6 29.90F NEW BERN MOSUNNY 91 67 44 VRB3 29.89F RICHLANDS SUNNY 91 63 38 W5 29.88F ROCKY MOUNT SUNNY 94 54 25 CALM 29.88F WASHINGTON SUNNY 90 64 42 W6 29.88F WHITEVILLE MOSUNNY 92 67 44 E5 29.90F $$ AMZ130-135-150-152-154-156-158-170-250-252-270-ANZ085-086-088-633-658-670-012000- MARINE OBSERVATIONS STATION/POSITION TIME TEMP WIND PRES WAVE SWELL AIR SEA DIR/SP/G HT/PER HT/PER (UTC) (F) (DEG/KT/KT) (MB) (FT/S) (FT/S) CHESAPEAKE LIGHT 1900 81 170/ 18/ 19 1012.2 64 E VA BEACH 1850 81 82 200/ 12/ 14 1012.4 3/ 8 3/ 8 DUCK 1900 81 80 140/ 12/ 13 1011.3 2 E DUCK 1911 79 N/A 2/ 8 OREGON INLET 1900 81 82 180/ 9/ 12 1012.4 13E OREGON INLT 1900 81 N/A 4/ 7 2/12 HATTERAS CG 1900 84 80 170/ 5/ 8 1012.4 DIAMOND BUOY 1850 81 85 170/ 12/ 12 1013.1 3/ 8 3/ 8 CAPE LOOKOUT 1900 83 230/ 7/ 9 1012.6 BEAUFORT LAB 1900 83 84 290/ 3/ 4 1012.0 30 SE NEW RVR IN NOT AVBL 27 SE WRIGHTSVLE 1900 78 83 230/ 14/ 16 N/A 5 SE WRIGHTSVLE 1808 82 83 230/ 12/ 14 1013.0 225 S CAPE HAT 1850 83 81 230/ 17/ 19 1016.1 6/ 7 2/11 41 SE CHARLESTON 1850 79 84 210/ 6/ 8 1013.0 4/ 6 3/ 6 $$

USA.gov is the U.S. government's official web portal to all federal, state and local government web resources and services.